Baker, OR

8:50 PM PDT on May 25, 2017 (GMT -0700)
Baker City Municipal

Weather History for KBKE - March, 2013

Change the Weather History Date:

Wednesday, March 27, 2013

  Actual Average Record
Temperature  
Mean Temperature 42 °F 40 °F  
Max Temperature 57 °F 53 °F 74 °F (1966)
Min Temperature 27 °F 27 °F 15 °F (1976)
Degree Days  
Heating Degree Days 23 25  
Month to date heating degree days 756 752  
Since 1 July heating degree days 6148 6272  
Cooling Degree Days 0 0  
Month to date cooling degree days 0 0  
Year to date cooling degree days 0 0  
Moisture  
Dew Point 35 °F    
Average Humidity 74    
Maximum Humidity 100    
Minimum Humidity 47    
Precipitation  
Precipitation 0.10 in 0.03 in 0.42 in (1996)
Month to date precipitation 0.31 0.71  
Year to date precipitation 1.58 2.09  
Sea Level Pressure  
Sea Level Pressure 29.97 in    
Wind  
Wind Speed 6 mph (SE)    
Max Wind Speed 22 mph    
Max Gust Speed 26 mph    
Visibility 9 miles    
Events Rain    
T = Trace of Precipitation, MM = Missing Value Source: NWS Daily Summary

Daily Weather History Graph

Daily Weather History Graph

Search for Another Location

Airport or City:

Trip Planner

Search our weather history database for the weather conditions in past years. The results will help you decide how hot, cold, wet, or windy it might be!

Date:

Astronomy

Mar. 27, 2013 Rise Set
Actual Time 6:40 AM PDT 7:13 PM PDT
Civil Twilight 6:11 AM PDT 7:42 PM PDT
Nautical Twilight 5:36 AM PDT 8:17 PM PDT
Astronomical Twilight 5:00 AM PDT 8:53 PM PDT
Moon 8:06 PM PDT (3/27) 6:32 AM PDT (3/27)
Length of Visible Light 13h 31m
Length of Day
12h 32m
Full, 100% of the Moon is Illuminated
Mar 27
Full
Apr 2
Last Quarter
Apr 10
New
Apr 18
First Quarter
Apr 25
Full

Hourly Weather History & Observations

Time (PDT) Temp. Windchill Dew Point Humidity Pressure Visibility Wind Dir Wind Speed Gust Speed Precip Events Conditions
12:53 AM 39.9 °F - 32.0 °F 73% 29.94 in 10.0 mi Calm Calm - N/A   Overcast
1:53 AM 37.0 °F 34.5 °F 30.9 °F 79% 29.95 in 10.0 mi SW 3.5 mph - N/A   Clear
2:53 AM 33.1 °F 27.7 °F 28.9 °F 85% 29.95 in 10.0 mi South 5.8 mph - N/A   Clear
3:53 AM 28.9 °F 22.8 °F 26.1 °F 89% 29.96 in 10.0 mi ENE 5.8 mph - N/A   Clear
4:53 AM 28.9 °F - 28.0 °F 96% 29.96 in 10.0 mi Calm Calm - N/A   Scattered Clouds
5:53 AM 34.0 °F 31.0 °F 30.0 °F 85% 29.96 in 10.0 mi South 3.5 mph - N/A   Overcast
6:53 AM 34.0 °F 31.0 °F 30.0 °F 85% 29.97 in 10.0 mi SSW 3.5 mph - N/A   Overcast
7:53 AM 35.1 °F - 32.0 °F 89% 29.99 in 10.0 mi Calm Calm - N/A   Overcast
8:53 AM 39.0 °F 36.8 °F 33.1 °F 79% 29.99 in 10.0 mi NW 3.5 mph - N/A   Overcast
9:53 AM 46.9 °F - 36.0 °F 66% 29.98 in 10.0 mi Variable 3.5 mph - N/A   Overcast
10:53 AM 52.0 °F - 34.0 °F 50% 29.98 in 10.0 mi East 16.1 mph - N/A   Scattered Clouds
11:53 AM 55.0 °F - 35.1 °F 47% 29.96 in 10.0 mi East 12.7 mph - N/A   Scattered Clouds
12:53 PM 55.9 °F - 35.1 °F 45% 29.95 in 10.0 mi ENE 19.6 mph 23.0 mph N/A   Partly Cloudy
1:53 PM 53.1 °F - 34.0 °F 48% 29.94 in 10.0 mi East 12.7 mph 24.2 mph 0.00 in Rain Light Rain
2:23 PM 55.4 °F - 33.8 °F 44% 29.94 in 10.0 mi SW 12.7 mph 25.3 mph 0.00 in   Overcast
2:53 PM 51.1 °F - 36.0 °F 56% 29.99 in 10.0 mi SSW 9.2 mph - 0.00 in Rain Light Rain
3:53 PM 55.0 °F - 37.0 °F 51% 29.96 in 10.0 mi SE 9.2 mph - 0.00 in   Scattered Clouds
4:53 PM 53.1 °F - 37.9 °F 57% 29.97 in 10.0 mi SE 9.2 mph - N/A   Mostly Cloudy
5:53 PM 50.0 °F - 39.9 °F 68% 29.97 in 10.0 mi East 9.2 mph - N/A   Mostly Cloudy
6:53 PM 48.0 °F - 39.9 °F 74% 29.98 in 10.0 mi East 4.6 mph - N/A   Mostly Cloudy
7:25 PM 46.4 °F 40.7 °F 42.8 °F 87% 29.95 in 2.5 mi East 12.7 mph 18.4 mph 0.09 in Rain Heavy Rain
7:31 PM 46.4 °F 40.4 °F 39.2 °F 76% 29.94 in 3.0 mi NE 13.8 mph 26.5 mph 0.10 in Rain Light Rain
7:43 PM 46.4 °F 45.2 °F 41.0 °F 81% 29.96 in 10.0 mi SSE 3.5 mph - 0.10 in   Overcast
7:53 PM 46.0 °F 43.1 °F 39.9 °F 79% 29.99 in 10.0 mi ESE 5.8 mph - 0.10 in   Mostly Cloudy
8:53 PM 39.9 °F - 37.9 °F 93% 30.01 in 10.0 mi Calm Calm - N/A   Clear
9:53 PM 37.9 °F 35.5 °F 37.0 °F 97% 30.00 in 10.0 mi NW 3.5 mph - N/A   Overcast
10:53 PM 39.0 °F 35.7 °F 37.9 °F 96% 30.00 in 10.0 mi West 4.6 mph - N/A   Overcast
11:53 PM 37.0 °F - 35.1 °F 93% 30.00 in 4.0 mi Calm Calm - N/A   Mostly Cloudy